Date String (YYYY-MM-DD hh:mm:ss) UTC,Instrument flags,absolute air pressure of the measurement (hPa),sample flow rate (lpm),inlet stack bypass flow (lpm),air temperature of the measurement (°C),ambient temperature measured by the external sensor (°C),aerosol sample conditioner tube jacket temperature (°C),OPC LED temperature (°C),internal box temperature (°C),relative humidity of the measurement (%),span deviation,mass concentration of particles derived from Lorenz-Mie calculation of OPC scattering (μg/m³),mass concentration of particles derived from Lorenz-Mie calculation of OPC scattering (μg/m³),mass concentration of particles derived from Lorenz-Mie calculation of OPC scattering (μg/m³)
DateTimeUTC,F1_M11,P_M11,Q1_M11,Q2_M11,T1_M11,T2_M11,T3_M11,T4_M11,T5_M11,U1_M11,ZSPAN_M11,X0_M11,X2_M11,X1_M11
2023-07-05 07:00:00,SystemResetWarning,0837.5,5.01,000.00,029.7,028.5,000.0,038.3,031.3,32.2,-000.2,0009.32,0005.33,0004.92
2023-07-05 07:01:00,SystemResetWarning,0837.5,5.01,000.00,029.8,028.5,000.0,038.3,031.4,32.2,0000.2,0009.32,0005.33,0004.91
2023-07-05 07:02:00,SystemResetWarning,0837.5,5.00,000.00,029.8,028.6,000.0,038.3,031.4,32.2,-001.1,0009.32,0005.32,0004.91
2023-07-05 07:03:00,SystemResetWarning,0837.5,4.99,000.00,029.8,028.6,000.0,038.3,031.4,32.2,-002.0,0009.30,0005.31,0004.90
2023-07-05 07:04:00,SystemResetWarning,0837.5,4.99,000.00,029.8,028.6,000.0,038.3,031.4,32.2,-002.1,0009.36,0005.29,0004.90
2023-07-05 07:05:00,SystemResetWarning,0837.6,4.99,000.00,029.8,028.6,000.0,038.3,031.4,32.2,-002.6,0009.46,0005.28,0004.88
2023-07-05 07:06:00,SystemResetWarning,0837.5,5.01,000.00,029.8,028.6,000.0,038.4,031.4,32.2,-001.6,0009.17,0005.26,0004.87
2023-07-05 07:07:00,SystemResetWarning,0837.4,5.00,000.00,029.8,028.6,000.0,038.4,031.4,32.3,-001.1,0008.63,0005.24,0004.86
2023-07-05 07:08:00,SystemResetWarning,0837.3,5.00,000.00,029.8,028.6,000.0,038.4,031.4,32.3,-001.0,0008.54,0005.21,0004.84
2023-07-05 07:09:00,SystemResetWarning,0837.2,5.00,000.00,029.9,028.6,000.0,038.4,031.4,32.3,-000.9,0008.55,0005.19,0004.84
2023-07-05 07:10:00,SystemResetWarning,0837.2,5.00,000.00,029.9,028.6,000.0,038.4,031.4,32.2,-001.0,0008.49,0005.17,0004.84
2023-07-05 07:11:00,SystemResetWarning,0837.2,5.00,000.00,029.9,028.6,000.0,038.4,031.5,32.2,-001.3,0008.64,0005.19,0004.85
2023-07-05 07:12:00,SystemResetWarning,0837.2,5.00,000.00,029.9,028.7,000.0,038.4,031.5,32.1,-001.7,0008.67,0005.18,0004.84
2023-07-05 07:13:00,SystemResetWarning,0837.4,5.00,000.00,029.9,028.7,000.0,038.4,031.5,31.9,-001.0,0008.65,0005.19,0004.85
2023-07-05 07:14:00,SystemResetWarning,0837.4,5.00,000.00,029.9,028.7,000.0,038.5,031.5,31.8,-000.9,0008.76,0005.22,0004.86
2023-07-05 07:15:00,SystemResetWarning,0837.4,5.00,000.00,029.9,028.7,000.0,038.5,031.5,31.7,-001.1,0008.81,0005.25,0004.87
2023-07-05 07:16:00,SystemResetWarning,0837.4,5.00,000.00,030.0,028.7,000.0,038.5,031.5,31.6,-000.9,0008.40,0005.25,0004.89
2023-07-05 07:17:00,SystemResetWarning,0837.4,5.00,000.00,030.0,028.7,000.0,038.5,031.5,31.5,-001.5,0008.47,0005.27,0004.90
2023-07-05 07:18:00,SystemResetWarning,0837.4,5.01,000.00,030.0,028.7,000.0,038.5,031.5,31.5,-002.4,0008.45,0005.26,0004.90
2023-07-05 07:19:00,SystemResetWarning,0837.5,5.01,000.00,030.0,028.7,000.0,038.5,031.6,31.4,-002.5,0008.38,0005.25,0004.90
2023-07-05 07:20:00,SystemResetWarning,0837.5,5.00,000.00,030.0,028.8,000.0,038.5,031.6,31.4,-002.9,0008.20,0005.20,0004.88
2023-07-05 07:21:00,SystemResetWarning,0837.6,5.00,000.00,030.0,028.8,000.0,038.6,031.6,31.4,-002.8,0008.19,0005.17,0004.85
2023-07-05 07:22:00,SystemResetWarning,0837.6,4.99,000.00,030.0,028.8,000.0,038.6,031.6,31.4,-002.6,0008.01,0005.14,0004.83
2023-07-05 07:23:00,SystemResetWarning,0837.6,4.99,000.00,030.0,028.8,000.0,038.6,031.6,31.3,-002.7,0007.99,0005.13,0004.83
2023-07-05 07:24:00,SystemResetWarning,0837.6,4.99,000.00,030.1,028.8,000.0,038.6,031.6,31.1,-002.1,0007.97,0005.12,0004.81
2023-07-05 07:25:00,SystemResetWarning,0837.5,5.00,000.00,030.1,028.8,000.0,038.6,031.6,31.0,-001.0,0007.86,0005.09,0004.80
2023-07-05 07:26:00,SystemResetWarning,0837.4,5.00,000.00,030.1,028.8,000.0,038.6,031.6,31.1,-000.2,0007.78,0005.07,0004.80
2023-07-05 07:27:00,SystemResetWarning,0837.4,5.00,000.00,030.1,028.8,000.0,038.6,031.6,31.1,-000.0,0007.76,0005.06,0004.78
2023-07-05 07:28:00,SystemResetWarning,0837.2,5.00,000.00,030.1,028.3,000.0,038.6,031.6,31.0,0000.8,0007.68,0005.03,0004.77
2023-07-05 07:29:00,SystemResetWarning,0837.3,5.00,000.00,030.0,026.2,000.0,038.4,031.4,31.0,0000.8,0007.63,0005.01,0004.76
2023-07-05 07:30:00,SystemResetWarning,0837.2,5.00,000.00,029.9,025.2,000.0,038.3,031.1,31.1,0001.1,0007.59,0004.99,0004.74
2023-07-05 07:31:00,SystemResetWarning,0837.2,5.01,000.00,029.8,025.2,000.0,038.3,030.8,31.3,0001.7,0007.58,0004.98,0004.72
2023-07-05 07:32:00,SystemResetWarning,0837.2,5.00,000.00,029.6,025.6,000.0,038.3,030.7,31.5,0001.9,0007.55,0004.98,0004.72
2023-07-05 07:33:00,SystemResetWarning,0837.2,5.00,000.00,029.6,026.0,000.0,038.3,030.8,31.7,0002.0,0007.55,0004.98,0004.70
2023-07-05 07:34:00,SystemResetWarning,0837.2,5.00,000.00,029.6,026.4,000.0,038.3,030.9,31.8,0002.2,0007.52,0004.97,0004.68
2023-07-05 07:35:00,SystemResetWarning,0837.2,4.99,000.00,029.5,026.8,000.0,038.3,030.9,31.8,0001.8,0007.48,0004.95,0004.66
2023-07-05 07:36:00,SystemResetWarning,0837.2,4.99,000.00,029.5,027.1,000.0,038.3,030.9,31.7,0000.8,0007.54,0004.93,0004.63
2023-07-05 07:37:00,SystemResetWarning,0837.2,5.01,000.00,029.5,027.3,000.0,038.3,031.0,31.5,-000.1,0007.55,0004.91,0004.61
2023-07-05 07:38:00,SystemResetWarning,0837.2,5.00,000.00,029.5,027.5,000.0,038.2,031.0,31.7,-000.1,0007.58,0004.92,0004.60
2023-07-05 07:39:00,SystemResetWarning,0837.2,4.99,000.00,029.5,027.7,000.0,038.2,031.0,31.8,-000.6,0007.60,0004.91,0004.59
2023-07-05 07:40:00,SystemResetWarning,0837.2,4.99,000.00,029.5,027.8,000.0,038.2,031.1,32.0,-000.7,0007.78,0004.87,0004.54
2023-07-05 07:41:00,SystemResetWarning,0837.2,5.00,000.00,029.6,027.9,000.0,038.2,031.1,32.0,-001.0,0008.24,0004.85,0004.52
2023-07-05 07:42:00,SystemResetWarning,0837.2,5.00,000.00,029.6,028.0,000.0,038.2,031.1,31.8,-001.2,0008.42,0004.86,0004.52
2023-07-05 07:43:00,SystemResetWarning,0837.2,5.01,000.00,029.6,028.1,000.0,038.2,031.1,31.9,-001.5,0008.44,0004.86,0004.52
2023-07-05 07:44:00,SystemResetWarning,0837.2,5.01,000.00,029.6,028.1,000.0,038.2,031.1,31.8,-001.9,0008.42,0004.84,0004.52
2023-07-05 07:45:00,SystemResetWarning,0837.2,4.99,000.00,029.6,028.2,000.0,038.2,031.2,32.0,-001.9,0008.40,0004.83,0004.52
2023-07-05 07:46:00,SystemResetWarning,0837.2,4.99,000.00,029.6,028.2,000.0,038.2,031.2,31.9,-001.7,0008.35,0004.80,0004.50
2023-07-05 07:47:00,SystemResetWarning,0837.2,4.99,000.00,029.6,028.3,000.0,038.2,031.2,31.9,-001.4,0008.23,0004.76,0004.48
2023-07-05 07:48:00,SystemResetWarning,0837.1,5.00,000.00,029.7,028.3,000.0,038.2,031.2,32.1,-000.8,0008.18,0004.74,0004.47
2023-07-05 07:49:00,SystemResetWarning,0837.1,5.00,000.00,029.7,028.4,000.0,038.2,031.2,32.1,-001.6,0008.67,0004.75,0004.46
2023-07-05 07:50:00,SystemResetWarning,0837.2,5.00,000.00,029.7,028.4,000.0,038.2,031.3,32.1,-001.6,0008.69,0004.75,0004.46
2023-07-05 07:51:00,SystemResetWarning,0837.2,5.00,000.00,029.7,028.4,000.0,038.3,031.3,32.2,-002.1,0008.57,0004.80,0004.49
2023-07-05 07:52:00,SystemResetWarning,0837.1,5.00,000.00,029.7,028.4,000.0,038.3,031.3,32.2,-001.8,0008.20,0004.82,0004.51
2023-07-05 07:53:00,SystemResetWarning,0837.1,5.00,000.00,029.7,028.5,000.0,038.3,031.3,32.3,-001.9,0008.00,0004.81,0004.51
2023-07-05 07:54:00,SystemResetWarning,0837.1,5.00,000.00,029.8,028.5,000.0,038.3,031.3,32.3,-002.0,0008.03,0004.84,0004.52
2023-07-05 07:55:00,SystemResetWarning,0837.0,5.00,000.00,029.8,028.5,000.0,038.3,031.3,32.2,-000.7,0008.05,0004.88,0004.55
2023-07-05 07:56:00,SystemResetWarning,0837.0,5.01,000.00,029.8,028.5,000.0,038.3,031.4,32.3,-000.1,0008.15,0004.95,0004.59
2023-07-05 07:57:00,SystemResetWarning,0837.0,5.00,000.00,029.8,028.5,000.0,038.3,031.4,32.4,-000.9,0008.29,0005.02,0004.63
2023-07-05 07:58:00,SystemResetWarning,0836.9,4.99,000.00,029.8,028.5,000.0,038.3,031.4,32.4,-000.9,0008.39,0005.08,0004.66
2023-07-05 07:59:00,SystemResetWarning,0836.9,4.99,000.00,029.8,028.6,000.0,038.4,031.4,32.2,-000.7,0008.51,0005.13,0004.69
